Change the Weather History Date:

Friday, November 9, 2012

  Actual Average (KMFE) Record (KMFE)
Temperature  
Mean Temperature 76 °F 71 °F  
Max Temperature 89 °F 82 °F 93 °F (1964)
Min Temperature 64 °F 61 °F 34 °F (1880)
Degree Days  
Heating Degree Days 0 1  
Month to date heating degree days 9  
Since 1 July heating degree days 14  
Cooling Degree Days 12 7  
Month to date cooling degree days 75  
Year to date cooling degree days 4257  
Growing Degree Days 26 (Base 50)    
Moisture  
Dew Point 61 °F    
Average Humidity 64    
Maximum Humidity 88    
Minimum Humidity 30    
Precipitation  
Precipitation 0.00 in 0.03 in 0.62 in (1957)
Month to date precipitation 0.35  
Year to date precipitation 20.47  
Sea Level Pressure  
Sea Level Pressure 30.02 in    
Wind  
Wind Speed 10 mph (SE)    
Max Wind Speed 24 mph    
Max Gust Speed 31 mph    
Visibility 9 miles    
Events      
T = Trace of Precipitation, MM = Missing Value Source: NWS Daily Summary

Daily Weather History Graph

Daily Weather History Graph

Search for Another Location

Airport or City:

Trip Planner

Search our weather history database for the weather conditions in past years. The results will help you decide how hot, cold, wet, or windy it might be!

Date:

Astronomy

Nov. 09, 2012 Rise Set
Actual Time 6:47 AM CST 5:44 PM CST
Civil Twilight 6:23 AM CST 6:09 PM CST
Nautical Twilight 5:55 AM CST 6:36 PM CST
Astronomical Twilight 5:28 AM CST 7:04 PM CST
Moon 2:13 AM CST (11/9) 2:36 PM CST (11/9)
Length of Visible Light 11h 45m
Length of Day
10h 57m
Waning Crescent, 23% of the Moon is Illuminated
Nov 9
Waning Crescent
Nov 13
New
Nov 20
First Quarter
Nov 28
Full
Dec 6
Last Quarter

Hourly Weather History & Observations

Time (CST) Temp. Heat Index Dew Point Humidity Pressure Visibility Wind Dir Wind Speed Gust Speed Precip Events Conditions
12:15 AM 68.0 °F - 62.6 °F 83% 30.06 in 10.0 mi SE 3.5 mph - N/A   Clear
12:35 AM 67.6 °F - 62.2 °F 83% 30.06 in 10.0 mi SE 4.6 mph - N/A   Clear
12:55 AM 66.6 °F - 62.1 °F 85% 30.05 in 10.0 mi SE 4.6 mph - N/A   Clear
1:15 AM 66.6 °F - 61.9 °F 85% 30.05 in 10.0 mi ESE 4.6 mph - N/A   Clear
1:35 AM 66.2 °F - 61.9 °F 86% 30.05 in 10.0 mi SE 5.8 mph - N/A   Clear
1:55 AM 64.6 °F - 60.6 °F 87% 30.04 in 10.0 mi SE 6.9 mph - N/A   Clear
2:15 AM 65.3 °F - 61.3 °F 87% 30.03 in 10.0 mi SE 6.9 mph - N/A   Clear
2:35 AM 66.2 °F - 61.9 °F 86% 30.03 in 10.0 mi SE 5.8 mph - N/A   Clear
2:55 AM 66.2 °F - 61.9 °F 86% 30.03 in 10.0 mi SE 5.8 mph - N/A   Clear
3:15 AM 65.5 °F - 61.3 °F 86% 30.03 in 10.0 mi SE 5.8 mph - N/A   Clear
3:35 AM 64.9 °F - 60.8 °F 86% 30.02 in 10.0 mi SE 5.8 mph - N/A   Clear
3:55 AM 64.9 °F - 61.2 °F 88% 30.02 in 10.0 mi SE 6.9 mph - N/A   Clear
4:15 AM 65.3 °F - 61.7 °F 88% 30.02 in 10.0 mi SE 6.9 mph - N/A   Clear
4:35 AM 65.5 °F - 61.7 °F 88% 30.02 in 10.0 mi SE 6.9 mph - N/A   Clear
4:55 AM 65.3 °F - 61.7 °F 88% 30.01 in 10.0 mi SE 6.9 mph - N/A   Clear
5:15 AM 66.2 °F - 62.6 °F 88% 30.01 in 10.0 mi SE 6.9 mph - N/A   Clear
5:35 AM 68.2 °F - 63.9 °F 86% 30.01 in 10.0 mi SSE 8.1 mph - N/A   Clear
5:55 AM 69.1 °F - 63.7 °F 83% 30.02 in 10.0 mi SSE 9.2 mph - N/A   Clear
6:15 AM 69.3 °F - 63.5 °F 82% 30.01 in 10.0 mi SSE 10.4 mph - N/A   Clear
6:35 AM 68.9 °F - 63.5 °F 83% 30.02 in 10.0 mi SSE 9.2 mph - N/A   Clear
6:55 AM 68.9 °F - 63.5 °F 83% 30.02 in 10.0 mi SSE 9.2 mph - N/A   Clear
7:15 AM 69.1 °F - 63.7 °F 83% 30.02 in 10.0 mi SSE 11.5 mph - N/A   Clear
7:35 AM 70.2 °F - 64.4 °F 82% 30.02 in 10.0 mi SSE 9.2 mph - N/A   Clear
7:55 AM 71.4 °F - 64.8 °F 79% 30.03 in 10.0 mi SSE 9.2 mph - N/A   Clear
8:15 AM 73.2 °F - 65.3 °F 76% 30.04 in 10.0 mi SSE 8.1 mph - N/A   Clear
8:35 AM 74.3 °F - 65.5 °F 74% 30.05 in 10.0 mi SSE 8.1 mph - N/A   Clear
8:55 AM 75.7 °F - 65.7 °F 71% 30.06 in 10.0 mi SSE 11.5 mph - N/A   Clear
9:15 AM 78.1 °F - 65.5 °F 65% 30.06 in 10.0 mi SSE 16.1 mph 21.9 mph N/A   Clear
9:35 AM 79.9 °F - 64.9 °F 60% 30.06 in 10.0 mi SSE 17.3 mph 25.3 mph N/A   Clear
9:55 AM 81.0 °F 82.5 °F 64.0 °F 56% 30.07 in 10.0 mi South 23.0 mph 29.9 mph N/A   Clear
10:15 AM 82.6 °F 83.8 °F 63.1 °F 52% 30.07 in 7.0 mi SSE 19.6 mph 28.8 mph N/A   Clear
10:35 AM 84.2 °F 84.8 °F 61.9 °F 47% 30.07 in 7.0 mi SSE 18.4 mph 31.1 mph N/A   Scattered Clouds
10:55 AM 84.7 °F 85.0 °F 61.3 °F 45% 30.06 in 7.0 mi SSE 18.4 mph 27.6 mph N/A   Scattered Clouds
11:15 AM 86.0 °F 85.4 °F 59.4 °F 40% 30.05 in 7.0 mi SSE 24.2 mph 31.1 mph N/A   Clear
11:35 AM 86.5 °F 85.9 °F 58.8 °F 39% 30.04 in 7.0 mi SSE 20.7 mph 28.8 mph N/A   Clear
11:55 AM 86.7 °F 86.1 °F 59.4 °F 39% 30.03 in 7.0 mi SSE 23.0 mph 26.5 mph N/A   Scattered Clouds
12:15 PM 86.5 °F 86.5 °F 60.6 °F 42% 30.02 in 7.0 mi SSE 19.6 mph 28.8 mph N/A   Scattered Clouds
12:35 PM 87.6 °F 86.3 °F 56.5 °F 35% 30.02 in 5.0 mi SSE 18.4 mph 28.8 mph N/A   Haze
12:55 PM 87.8 °F 86.7 °F 57.6 °F 36% 30.00 in 7.0 mi SSE 23.0 mph 31.1 mph N/A   Clear
1:15 PM 87.8 °F 86.3 °F 55.8 °F 34% 29.99 in 7.0 mi SSE 19.6 mph 28.8 mph N/A   Clear
1:35 PM 88.3 °F - 52.9 °F 30% 29.97 in 7.0 mi South 20.7 mph 25.3 mph N/A   Clear
1:55 PM 88.0 °F 86.1 °F 54.9 °F 32% 29.97 in 5.0 mi South 16.1 mph 27.6 mph N/A   Haze
2:15 PM 89.2 °F 87.7 °F 56.7 °F 33% 29.96 in 5.0 mi SSE 17.3 mph 21.9 mph N/A   Haze
2:35 PM 88.2 °F 86.1 °F 54.3 °F 31% 29.96 in 7.0 mi South 19.6 mph 25.3 mph N/A   Clear
2:55 PM 88.0 °F 86.5 °F 56.5 °F 34% 29.96 in 7.0 mi SE 17.3 mph - N/A   Clear
3:15 PM 86.9 °F 85.9 °F 57.9 °F 37% 29.96 in 7.0 mi SSE 20.7 mph 26.5 mph N/A   Clear
3:35 PM 87.6 °F 86.9 °F 58.8 °F 38% 29.95 in 7.0 mi SE 20.7 mph 26.5 mph N/A   Scattered Clouds
3:55 PM 87.1 °F 86.5 °F 59.2 °F 39% 29.95 in 7.0 mi SE 20.7 mph 25.3 mph N/A   Mostly Cloudy
4:15 PM 86.0 °F 85.4 °F 59.0 °F 40% 29.96 in 7.0 mi SSE 19.6 mph 23.0 mph N/A   Scattered Clouds
4:35 PM 85.1 °F 84.3 °F 57.7 °F 39% 29.96 in 7.0 mi SSE 17.3 mph - N/A   Clear
4:55 PM 84.2 °F 83.7 °F 57.9 °F 41% 29.96 in 10.0 mi SE 17.3 mph 24.2 mph N/A   Clear
5:15 PM 82.9 °F 82.7 °F 58.1 °F 43% 29.96 in 7.0 mi SE 13.8 mph 20.7 mph N/A   Clear
5:35 PM 81.7 °F 81.4 °F 56.7 °F 42% 29.96 in 7.0 mi SSE 17.3 mph 23.0 mph N/A   Clear
5:55 PM 80.6 °F 81.1 °F 59.2 °F 48% 29.97 in 7.0 mi SE 13.8 mph 19.6 mph N/A   Clear
6:15 PM 79.9 °F - 60.1 °F 51% 29.97 in 7.0 mi SE 12.7 mph 20.7 mph N/A   Clear
6:35 PM 79.0 °F - 60.8 °F 54% 29.98 in 7.0 mi SE 11.5 mph - N/A   Clear
6:55 PM 77.0 °F - 61.2 °F 58% 29.99 in 10.0 mi ESE 8.1 mph - N/A   Clear
7:15 PM 75.7 °F - 61.3 °F 61% 29.99 in 10.0 mi SE 9.2 mph - N/A   Clear
7:35 PM 74.8 °F - 61.0 °F 62% 30.00 in 7.0 mi SE 8.1 mph - N/A   Clear
7:55 PM 74.1 °F - 61.2 °F 64% 30.01 in 10.0 mi SE 8.1 mph - N/A   Clear
8:15 PM 73.4 °F - 61.3 °F 66% 30.02 in 7.0 mi SE 8.1 mph - N/A   Clear
8:35 PM 72.5 °F - 61.2 °F 67% 30.02 in 7.0 mi SE 6.9 mph - N/A   Clear
8:55 PM 72.3 °F - 61.3 °F 68% 30.02 in 7.0 mi SE 8.1 mph - N/A   Clear
9:15 PM 72.0 °F - 61.3 °F 69% 30.02 in 7.0 mi SE 6.9 mph - N/A   Clear
9:35 PM 70.5 °F - 61.7 °F 74% 30.03 in 7.0 mi SE 8.1 mph - N/A   Clear
9:55 PM 69.8 °F - 61.7 °F 75% 30.03 in 7.0 mi SE 8.1 mph - N/A   Clear
10:15 PM 68.9 °F - 61.3 °F 77% 30.03 in 10.0 mi SE 6.9 mph - N/A   Clear
10:35 PM 68.4 °F - 61.3 °F 78% 30.04 in 10.0 mi SE 5.8 mph - N/A   Clear
10:55 PM 68.9 °F - 61.7 °F 78% 30.04 in 10.0 mi SE 5.8 mph - N/A   Clear
11:15 PM 68.2 °F - 61.3 °F 79% 30.03 in 10.0 mi SE 5.8 mph - N/A   Clear
11:35 PM 68.2 °F - 61.7 °F 80% 30.03 in 10.0 mi SE 6.9 mph - N/A   Clear
11:55 PM 68.0 °F - 61.7 °F 80% 30.03 in 10.0 mi SE 6.9 mph - N/A   Clear